Retour au catalogue

STARLINK-4728

ActifCommunicationsVLEO
NORAD 53793·PAYLOAD·🇺🇸 United States

Lancé Sep 11, 2022 depuis Cape Canaveral Space Force Station

Loading…

Prochains Passages (prochaines 24 heures)

TLE

FraisSource: CelesTrak SupGP

Époque: Sep 14, 2026, 14:13 UTC

1 53793C 22111W   26257.59284722  .00042177  00000+0  13565-2 0  2574
2 53793  53.1583 133.5220 0001670  86.1149 309.0456 15.31676261    19

Suivez STARLINK-4728 en temps réel avec AllMySat

Download on the App Store